Location: Allentsteig
(48.6833°N, 15.3167°E)
Time: 00:44:50
(UTC+00:00)

Cosmos 2298 Rocket - Pass Details

Date: 22 January 2021
Orbit: 775 x 784 km, 74.0° (Epoch: 03 March)

Event Time Altitude Azimuth Distance (km) Brightness Sun altitude
Exits shadow 06:02:07 - 327° (NNW) 3,096 6.6 -6.5°
Reaches altitude 10° 06:04:14 10° 319° (NW) 2,352 6.0 -6.2°
Maximum altitude 06:08:50 30° 259° (W) 1,374 4.9 -5.5°
Drops below altitude 10° 06:13:24 10° 200° (SSW) 2,336 6.6 -4.8°
Sets 06:16:01 0° 190° (S) 3,259 7.5 -4.4°
